Regional Weather Roundup
Issued by NWS Green Bay, WI

Home | Current Version | Previous Version | Text Only | Print | Product List | Glossary On
Versions: 1 2 3 4 5 6 7 8 9 10 11 12 13 14 15 16 17 18 19 20 21 22 23 24 25 26 27 28 29 30 31 32 33 34 35 36 37 38 39 40 41 42 43 44 45 46 47 48 49 50
000
ASUS43 KGRB 060211
RWRGRB

NORTH-CENTRAL AND NORTHEAST WISCONSIN REGIONAL WEATHER ROUNDUP
NATIONAL WEATHER SERVICE GREEN BAY WI
800 PM CST MON DEC 05 2016

WIZ005-009-010>012-018-019-060300-
NORTH CENTRAL WISCONSIN

CITY           SKY/WX    TMP DP  RH WIND       PRES   REMARKS
IRONWOOD       CLOUDY    35  33  92 E9        29.76F
MANITOWISH WTR CLOUDY    34  33  98 SE8       29.77F
ARBOR VITAE    CLOUDY    37  34  90 SE8       29.79F
EAGLE RIVER    CLOUDY    33  32  99 E8        29.81F
LAND O LAKES   CLOUDY    33  32  96 SE7       29.86F
RHINELANDER    CLOUDY    34  32  92 SE10      29.82F
PHILLIPS       CLOUDY    33  31  92 SE9       29.75F
ANTIGO         CLOUDY    32  31  99 E7        29.84F
TOMAHAWK       CLOUDY    32  30  92 SE3       29.82F
MERRILL        CLOUDY    32  32  99 SE5       29.84S FOG
$$

WIZ013-073-060300-
NORTHEAST WISCONSIN

CITY           SKY/WX    TMP DP  RH WIND       PRES   REMARKS
IRON MOUNTAIN  CLOUDY    32  28  85 S6        29.91R
MARINETTE      NOT AVBL
OCONTO         CLOUDY    34  32  92 CALM      29.95F
$$

WIZ017-030-035>037-045-060300-
CENTRAL WISCONSIN

CITY           SKY/WX    TMP DP  RH WIND       PRES   REMARKS
MEDFORD        CLOUDY    32  30  93 SE10      29.79F
WAUSAU         CLOUDY    32  30  92 SE5       29.83F
MOSINEE        PTCLDY    32  32 100 SE8       29.85F FOG
MARSHFIELD     CLOUDY    32  30  92 SE12      29.81F
WISC RAPIDS    CLOUDY    32  32 100 SE8       29.86F
STEVENS POINT  CLOUDY    31  31 100 SE6       29.86F FOG
WAUPACA        CLOUDY    34  32  92 SE7       29.90F FOG
SHAWANO        CLOUDY    35  32  90 SE3       29.91F FOG
CLINTONVILLE   CLOUDY    32  32 100 SE7       29.91F FOG
WAUTOMA        CLOUDY    32  31  96 S9        29.91F
$$

WIZ038-039-048-051-060300-
FOX VALLEY

CITY           SKY/WX    TMP DP  RH WIND       PRES   REMARKS
NWS GREEN BAY  CLOUDY    35  34  96 SE5       29.92F
APPLETON       CLOUDY    32  32 100 SE6       29.90F
OSHKOSH        CLOUDY    33  30  88 SE8       29.91F
FOND DU LAC    CLOUDY    32  28  85 S7        29.92F
$$

WIZ022-050-052-060300-
EAST CENTRAL WISCONSIN

CITY           SKY/WX    TMP DP  RH WIND       PRES   REMARKS
EPHRAIM        CLOUDY    32  32  99 SW6       29.95S
WASHINGTON ISL CLOUDY    35  32  90 S8        29.95S
STURGEON BAY   NOT AVBL
MANITOWOC      CLOUDY    34  32  92 S5        29.95F FOG
SHEBOYGAN      CLOUDY    33  31  92 S6        29.95F FOG
$$

LMZ563-521-522-541>543-060300-
LAKESHORE

STATION/POSITION TIME  TEMP    WIND        PRES    VSBY  WAVE
                       AIR SEA DIR/SP/G                  HT/PER
                 (UTC) (F)     (DEG/KT/KT) (MB)    (MI)  (FT/S)
SHEBOYGAN LKSHOR 0100   35     210/  5/  6 1014.9F
KEWAUNEE LKSHORE 0142   34     240/  2/  5 1013.9F
ALGOMA MARINA    0106          230/ 10/ 12   N/A
NORTHPORT PIER   0140   35     220/  3/  8 1014.6R
SISTER BAY LKSHO 0138   35     200/ 10/ 12   N/A
CHAMBERS ISLAND  0130   37     190/  5/ 11 1013.9S
MENOMINEE LKSHOR 0142   35     220/  7/ 10 1013.7R
$$



USA.gov is the U.S. government's official web portal to all federal, state and local government web resources and services.